www.pogodaiklimat.ru

Погода и климат >> Архив погоды >> Украина >> Чернобыль


ПОГОДА в Чернобыле

  • Прогноз погоды в Чернобыле
  • Монитор погоды в Чернобыле

АРХИВ ПОГОДЫ в Чернобыле

Время (UTC), дата Ветер
(напр.,м/с)
 
Видим.   Явления Облачность Т
(С)
Тd
(С)
f
(%)
Тe
(С)
Тes
(С)
Комфортность P
(гПа)
Po
(гПа)
Тmin
(С)
Tmax
(С)
R
(мм)
R24
(мм)
S
(см)
18 16.08 штиль 0 10 км 9/9 600 м
[Sc]
+15.8 +12.2 79 +16 +16 1014.0 998.9 +18.0
21 16.08 СЗ 1 10 км 10/10 800 м
[Sc]
+15.7 +12.3 80 +16 +16 1014.0 998.9
00 17.08 СЗ 2 10 км 9/9 600 м
[Sc]
+14.8 +11.6 81 +14 +14 1013.0 997.9
03 17.08 СЗ 2 10 км 10/0
[Ac und]
+13.8 +11.0 83 +13 +13 1013.0 997.8
06 17.08 С 2 10 км 10/0
[Ac und]
+14.1 +10.9 81 +14 +14 1013.0 997.9 +13.5
09 17.08 СЗ 2 10 км 9/9 600 м
[Sc]
+15.4 +11.2 76 +15 +15 1014.0 998.9
12 17.08 СЗ 2 10 км 10/10 660 м
[Sc]
+16.4 +12.4 77 +17 +17 1014.0 999.0
15 17.08 СЗ 1 10 км 10/10 660 м
[Sc]
+16.0 +13.5 85 +17 +17 1013.0 998.0
18 17.08 СЗ 1 4000 м дымка {ливн. осадки} 9/9 600 м
[Sc]
+15.2 +14.6 96 +16 +16 1013.0 997.9 +17.1 0.0
21 17.08 СЗ 1 4000 м дымка 6/3 600 м
[Sc Ac trans]
+12.8 +12.3 97 +13 +13 1013.0 997.8
00 18.08 штиль 0 4000 м дымка ясно +10.8 +10.6 99 +10 +10 1014.0 998.7
03 18.08 штиль 0 4000 м дымка ясно +9.2 +9.1 99 +8 +8 1014.0 998.6
06 18.08 СЗ 1 10 км 3/0
[Ci fib]
+17.9 +12.6 71 +19 +23 1013.0 998.1 +9.1
09 18.08 СЗ 2 10 км 4/4 1000 м
[Cu med, cong]
+23.0 +9.7 43 +25 +34 комфорт 1014.0 999.3
12 18.08 СЗ 1 10 км 3/3 1000 м
[Cu hum]
+25.9 +8.4 33 +26 +35 жарко 1013.0 998.4
15 18.08 СЗ 1 10 км 3/3 1000 м
[Cu med, cong]
+25.2 +10.2 39 +26 +28 жарко 1014.0 999.4
18 18.08 штиль 0 10 км ясно +17.6 +10.0 61 +18 +18 1015.0 1000.0 +26.3
21 18.08 штиль 0 10 км ясно +14.3 +10.9 80 +14 +14 1016.0 1000.8
00 19.08 штиль 0 10 км ясно +12.2 +10.4 89 +12 +12 1017.0 1001.7
03 19.08 штиль 0 10 км ясно +10.0 +8.1 88 +9 +9 1018.0 1002.6
06 19.08 штиль 0 10 км ясно +19.3 +12.3 64 +20 +27 1019.0 1004.0 +9.7
09 19.08 З 1 10 км ясно +27.8 +11.8 37 +29 +44 жарко 1018.0 1003.5
12 19.08 Ю 2 10 км 1/1 600 м
[Cu hum]
+28.6 +14.0 41 +31 +41 жарко 1018.0 1003.5
15 19.08 В 1 10 км 3/0
[Ac trans]
+27.9 +14.1 43 +30 +32 жарко 1018.0 1003.5
18 19.08 ЮВ 1 10 км ясно +21.2 +15.3 69 +24 +24 комфорт 1019.0 1004.2 +29.4
21 19.08 В 1 10 км ясно +18.4 +15.1 81 +20 +20 1020.0 1005.0
00 20.08 штиль 0 10 км ясно +16.2 +14.6 90 +16 +16 1020.0 1004.9
03 20.08 В 1 4000 м дымка ясно +15.1 +14.0 93 +16 +16 1021.0 1005.8
06 20.08 ЮВ 1 10 км ясно +23.0 +14.5 59 +27 +32 душно 1022.0 1007.2 +14.6
09 20.08 ЮВ 1 10 км 3/3 1000 м
[Cu med, cong]
+30.2 +15.1 40 +33 +43 душно 1021.0 1006.6
12 20.08 В 2 10 км 6/6 1000 м
[Cu med, cong]
+31.1 +14.6 37 +33 +37 душно 1020.7 1006.4
15 20.08 В 1 10 км 1/1 1000 м
[Cu med, cong]
+30.8 +15.2 39 +33 +36 душно 1021.0 1006.6
18 20.08 штиль 0 10 км 1/0
[Ci fib]
+23.2 +18.1 73 +29 +29 душно 1022.0 1007.2 +32.0
21 20.08 ЮВ 1 10 км 8/0
[Ci fib]
+20.3 +16.7 80 +24 +24 комфорт 1023.0 1008.1
00 21.08 штиль 0 10 км 6/0
[Ci fib]
+18.0 +15.8 87 +18 +18 1023.0 1007.9
03 21.08 штиль 0 10 км 3/0
[Ci fib]
+16.2 +14.6 90 +16 +16 1023.0 1007.8
06 21.08 штиль 0 10 км 3/0
[Cu med, cong]
+23.8 +18.9 74 +29 +33 душно 1023.0 1008.3 +15.9
09 21.08 Ю 2 10 км ясно +31.0 +15.4 39 +33 +46 душно 1022.0 1007.6
12 21.08 В 2 10 км ясно +31.6 +13.3 33 +33 +43 жарко 1021.0 1006.6
15 21.08 ЮВ 1 10 км ясно +31.2 +16.0 40 +34 +36 душно 1020.0 1005.6
18 21.08 В 1 10 км ясно +23.2 +16.2 65 +28 +28 душно 1020.0 1005.2 +32.5
21 21.08 штиль 0 10 км ясно +19.8 +15.4 76 +22 +22 комфорт 1021.0 1006.1
00 22.08 СЗ 2 10 км ясно +19.7 +16.9 84 +23 +23 комфорт 1021.0 1006.1
03 22.08 СЗ 2 10 км 1/0
[Ci fib]
+16.1 +14.3 89 +16 +16 1023.0 1007.8
06 22.08 СЗ 1 10 км 9/9 600 м
[Sc]
+18.2 +14.9 81 +20 +20 1024.0 1008.9 +15.9
09 22.08 СЗ 2 10 км 9/0 600 м
[]
+19.6 +14.8 74 +22 +22 комфорт 1025.0 1010.0
12 22.08 СЗ 2 10 км 8/5 600 м
[Sc Ac trans]
+19.6 +14.2 71 +22 +22 комфорт 1026.0 1011.0
15 22.08 СВ 2 10 км 3/1 600 м
[Cu hum Ac trans]
+22.8 +14.4 59 +26 +28 жарко 1025.0 1010.1
18 22.08 ЮВ 1 10 км 1/0
[Ac trans]
+18.4 +13.9 75 +20 +20 1026.0 1010.9 +23.5
21 22.08 СЗ 1 10 км 3/0
[Ac trans]
+16.0 +12.9 82 +17 +17 1027.0 1011.8
00 23.08 С 1 10 км ясно +13.9 +11.9 88 +14 +14 1028.0 1012.6
03 23.08 СВ 1 4000 м дымка 8/0
[Ac lent]
+12.8 +12.0 95 +13 +13 1027.0 1011.6
06 23.08 С 1 10 км 6/0
[Ac trans Ci fib]
+16.7 +12.4 76 +18 +20 1028.0 1012.8 +12.6
09 23.08 СВ 2 10 км 8/1 600 м
[Cu hum Ac trans Ci fib]
+21.7 +13.3 59 +24 +24 комфорт 1028.0 1013.0
12 23.08 СВ 2 10 км 9/5 600 м
[Cu med, cong Ac und]
+22.3 +11.4 50 +24 +24 комфорт 1027.0 1012.1
15 23.08 СВ 1 10 км 8/5 600 м
[Sc Ac trans]
+22.3 +11.7 51 +25 +25 комфорт 1026.0 1011.1

 

Местоположение метеостанции Чернобыль (Киевская область, Украина): широта 51.28 долгота 30.23 высота над уровнем моря 127 м.

В архиве по умолчанию представлена погода в Чернобыле за последнюю неделю. Архивные данные за месяц целиком и за предыдущие месяцы, начиная с января 2011 года, Вы можете получить, выбрав интересующий диапазон дат из раскрывающегося списка и нажав кнопку "Ввод!".


*Определитесь, кто Вы:
робот инопланетянин человек

Внимание! Время в таблицах - всемирное. Для получения местного времени необходимо прибавить поправку, которая равна 2 ч.

Смотрите также архив погоды в соседних городах и на ближайших метеорологических станциях:

Погода в Брагине (Гомельская область, Беларусь) (57 км)
Погода в Остере (Черниговская область, Украина) (58 км)
Погода в Чернигове (Черниговская область, Украина) (74 км)
Погода в Тетереве (Киевская область, Украина) (79 км)
Погода в Вышгороде (Киевская область, Украина) (80 км)
Погода в Киеве (город Киев, Украина) (101 км)
Погода в Овруче (Житомирская область, Украина) (101 км)
Погода в Мозыре (Гомельская область, Беларусь) (111 км)
Погода в Василевичах (Гомельская область, Беларусь) (111 км)
Погода в Коростени (Житомирская область, Украина) (116 км)

Пояснения к столбцам:

Ветер - указаны скорость ветра в м/с - средняя за 10 мин, порывы в срок и между сроками (в фигурных скобках) и направление, откуда дует ветер: С - северный, СВ - северо-восточный, В - восточный, ЮВ - юго-восточный, Ю - южный, ЮЗ - юго-западный, З - западный, СЗ - северо-западный.
Видимость - горизонтальная дальность видимости в метрах или километрах. При видимости от 1 до 10 км при отсутствии осадков обычно наблюдается дымка, при ухудшении видимости до 1 км и менее - туман. В сухую погоду видимость может ухудшаться дымом, пылью или мглою.
Явления - указаны атмосферные явления, наблюдавшиеся в срок или в последний час перед сроком; фигурными скобками обозначены явления, наблюдавшиеся между сроками (за 1-3 часа до срока); квадратными скобками обозначены град или гололедные отложения с указанием их диаметра в мм.
Облачность - указаны через наклонную черту общая и нижняя облачность в баллах и высота нижней границы облаков в метрах; квадратными скобками обозначены формы облаков: Ci - перистые, Cs - перисто-слоистые, Cc - перисто-кучевые, Ac - высококучевые, As - высокослоистые, Sc - слоисто-кучевые, Ns - слоисто-дождевые, Cu - кучевые, Cb - кучево-дождевые. Подробнее классификацию облаков см. в Атласе облаков (PDF).
T - Температура воздуха - температура, измеренная на высоте 2 м над землей.
Td - Температура точки росы - температура, при понижении до которой содержащийся в воздухе водяной пар достигнет насыщения.
f - Относительная влажность воздуха - влажноcть воздуха, измеренная на высоте 2 м над землей.
Te - Эффективная температура - температура, которую ощущает одетый по сезону человек в тени. Характеристика душности погоды. При расчете учитывается влияние влажности воздуха и скорости ветра на теплоощущения человека.
Tes - Эффективная температура на солнце - температура, которую ощущает человек, с поправкой на солнечный нагрев. Характеристика знойности погоды. Зависит от высоты солнца над горизонтом, облачности и скорости ветра. Ночью, в пасмурную погоду, а также при ветре 12 м/с и более поправка равна нулю.
P - Атмосферное давление - приведенное к уровню моря атмосферное давление.
Po - Атмосферное давление - измеренное на уровне метеостанции атмосферное давление.
Tmin - Минимальная температура - минимум температуры воздуха на высоте 2 м над землей.
Tmax - Максимальная температура - максимум температуры воздуха на высоте 2 м над землей.
R - Количество осадков - Количество выпавших осадков за период времени, мм. При наведении курсора мыши на число - период времени, за который выпало указанное количество осадков.
R24 - Количество осадков - Количество выпавших осадков за 24 часа, мм.
S - Снежный покров - Высота снежного покрова, см. При наведении курсора мыши на число - состояние снежного покрова и степень покрытия местности в баллах.